| time (UTC) | temp F | wind direction | speed MPH | gust MPH | rain 1hr in | rain 24hr in | rain mn in | humidity % | barometer mb |
| 20260506133520 | 50 | 293 | 0.0 | 0.0 | 0.00 | 0.00 | 0.00 | 85 | 1016.9 |
| 20260506133017 | 50 | 293 | 0.0 | 0.0 | 0.00 | 0.00 | 0.00 | 85 | 1016.9 |
| 20260506132516 | 50 | 293 | 0.0 | 0.0 | 0.00 | 0.00 | 0.00 | 85 | 1016.8 |
| 20260506132019 | 50 | 293 | 0.0 | 0.0 | 0.00 | 0.00 | 0.00 | 85 | 1016.8 |
| 20260506131517 | 50 | 293 | 0.0 | 0.0 | 0.00 | 0.00 | 0.00 | 85 | 1016.8 |
| 20260506131016 | 50 | 293 | 0.0 | 1.0 | 0.00 | 0.00 | 0.00 | 85 | 1016.9 |
| 20260506130516 | 50 | 293 | 0.0 | 1.0 | 0.00 | 0.00 | 0.00 | 85 | 1016.7 |
| 20260506130013 | 50 | 293 | 0.0 | 1.0 | 0.00 | 0.00 | 0.00 | 84 | 1016.7 |
| 20260506125512 | 50 | 293 | 0.0 | 0.0 | 0.00 | 0.00 | 0.00 | 84 | 1016.6 |
| 20260506125013 | 50 | 293 | 0.0 | 0.0 | 0.00 | 0.00 | 0.00 | 84 | 1016.5 |
| 20260506124510 | 51 | 293 | 0.0 | 1.0 | 0.00 | 0.00 | 0.00 | 85 | 1016.6 |
| 20260506124010 | 51 | 293 | 0.0 | 2.0 | 0.00 | 0.00 | 0.00 | 85 | 1016.6 |
| 20260506123510 | 51 | 293 | 0.0 | 2.0 | 0.00 | 0.00 | 0.00 | 85 | 1016.6 |
| 20260506123010 | 51 | 294 | 0.0 | 3.0 | 0.00 | 0.00 | 0.00 | 85 | 1016.6 |
| 20260506122510 | 51 | 296 | 0.0 | 3.0 | 0.00 | 0.00 | 0.00 | 85 | 1016.5 |
| 20260506122009 | 51 | 306 | 0.0 | 2.0 | 0.00 | 0.00 | 0.00 | 84 | 1016.5 |
| 20260506121509 | 51 | 308 | 0.0 | 2.0 | 0.00 | 0.00 | 0.00 | 84 | 1016.6 |
| 20260506121008 | 51 | 287 | 0.0 | 0.0 | 0.00 | 0.00 | 0.00 | 84 | 1016.6 |
| 20260506120509 | 51 | 289 | 0.0 | 1.0 | 0.00 | 0.00 | 0.00 | 84 | 1016.5 |
| 20260506120008 | 51 | 289 | 0.0 | 1.0 | 0.00 | 0.00 | 0.00 | 85 | 1016.4 |
| 20260506115507 | 50 | 275 | 0.0 | 1.0 | 0.00 | 0.00 | 0.00 | 84 | 1016.4 |
| 20260506115005 | 50 | 238 | 0.0 | 1.0 | 0.00 | 0.00 | 0.00 | 84 | 1016.3 |
| 20260506114505 | 50 | 237 | 0.0 | 1.0 | 0.00 | 0.00 | 0.00 | 83 | 1016.2 |
| 20260506114004 | 49 | 237 | 0.0 | 1.0 | 0.00 | 0.00 | 0.00 | 82 | 1016.2 |
| 20260506113503 | 49 | 236 | 0.0 | 0.0 | 0.00 | 0.00 | 0.00 | 81 | 1016.0 |
| 20260506113003 | 49 | 236 | 0.0 | 0.0 | 0.00 | 0.00 | 0.00 | 81 | 1016.0 |
| 20260506112502 | 50 | 236 | 0.0 | 0.0 | 0.00 | 0.00 | 0.00 | 81 | 1015.8 |
| 20260506112001 | 50 | 236 | 0.0 | 0.0 | 0.00 | 0.00 | 0.00 | 81 | 1015.8 |
| 20260506111501 | 50 | 236 | 0.0 | 0.0 | 0.00 | 0.00 | 0.00 | 81 | 1015.9 |
| 20260506111001 | 50 | 236 | 0.0 | 0.0 | 0.00 | 0.00 | 0.00 | 81 | 1015.8 |
| 20260506110600 | 50 | 236 | 0.0 | 0.0 | 0.00 | 0.00 | 0.00 | 81 | 1015.8 |
| 20260506110100 | 50 | 236 | 0.0 | 0.0 | 0.00 | 0.00 | 0.00 | 80 | 1015.8 |
| 20260506105559 | 50 | 236 | 0.0 | 0.0 | 0.00 | 0.00 | 0.00 | 80 | 1015.8 |
| 20260506105059 | 50 | 236 | 0.0 | 0.0 | 0.00 | 0.00 | 0.00 | 80 | 1015.7 |
| 20260506104632 | 50 | 236 | 0.0 | 0.0 | 0.00 | 0.00 | 0.00 | 79 | 1015.7 |
| 20260506104057 | 50 | 236 | 0.0 | 0.0 | 0.00 | 0.00 | 0.00 | 79 | 1015.8 |
| 20260506103557 | 50 | 236 | 0.0 | 0.0 | 0.00 | 0.00 | 0.00 | 79 | 1015.7 |
| 20260506103100 | 50 | 236 | 0.0 | 0.0 | 0.00 | 0.00 | 0.00 | 79 | 1015.8 |
| 20260506102557 | 50 | 236 | 0.0 | 0.0 | 0.00 | 0.00 | 0.00 | 79 | 1015.8 |
| 20260506102057 | 50 | 236 | 0.0 | 0.0 | 0.00 | 0.00 | 0.00 | 78 | 1015.8 |
| 20260506101556 | 50 | 236 | 0.0 | 0.0 | 0.00 | 0.00 | 0.00 | 78 | 1015.8 |
| 20260506101056 | 50 | 236 | 0.0 | 0.0 | 0.00 | 0.00 | 0.00 | 78 | 1015.8 |
| 20260506100555 | 50 | 236 | 0.0 | 0.0 | 0.00 | 0.00 | 0.00 | 77 | 1015.6 |
| 20260506100054 | 50 | 236 | 0.0 | 0.0 | 0.00 | 0.00 | 0.00 | 77 | 1015.5 |
| 20260506095556 | 50 | 236 | 0.0 | 0.0 | 0.00 | 0.00 | 0.00 | 77 | 1015.5 |
| 20260506095052 | 51 | 236 | 0.0 | 0.0 | 0.00 | 0.00 | 0.00 | 77 | 1015.4 |
| 20260506094551 | 51 | 236 | 0.0 | 0.0 | 0.00 | 0.00 | 0.00 | 77 | 1015.4 |
| 20260506094049 | 51 | 236 | 0.0 | 0.0 | 0.00 | 0.00 | 0.00 | 77 | 1015.4 |
| 20260506093550 | 51 | 236 | 0.0 | 0.0 | 0.00 | 0.00 | 0.00 | 77 | 1015.4 |
| 20260506093048 | 51 | 236 | 0.0 | 0.0 | 0.00 | 0.00 | 0.00 | 77 | 1015.3 |
| 20260506092548 | 51 | 236 | 0.0 | 0.0 | 0.00 | 0.00 | 0.00 | 77 | 1015.2 |
| 20260506092047 | 51 | 236 | 0.0 | 0.0 | 0.00 | 0.00 | 0.00 | 76 | 1015.2 |
| 20260506091547 | 51 | 236 | 0.0 | 0.0 | 0.00 | 0.00 | 0.00 | 76 | 1015.1 |
| 20260506091047 | 51 | 236 | 0.0 | 0.0 | 0.00 | 0.00 | 0.00 | 76 | 1015.1 |
| 20260506090546 | 51 | 236 | 0.0 | 0.0 | 0.00 | 0.00 | 0.00 | 76 | 1015.1 |
| 20260506090048 | 51 | 236 | 0.0 | 0.0 | 0.00 | 0.00 | 0.00 | 76 | 1015.1 |
| 20260506085544 | 51 | 236 | 0.0 | 0.0 | 0.00 | 0.00 | 0.00 | 76 | 1015.0 |
| 20260506085048 | 52 | 236 | 0.0 | 0.0 | 0.00 | 0.00 | 0.00 | 75 | 1015.0 |
| 20260506084544 | 52 | 236 | 0.0 | 0.0 | 0.00 | 0.00 | 0.00 | 75 | 1014.9 |
| 20260506084043 | 52 | 236 | 0.0 | 0.0 | 0.00 | 0.00 | 0.00 | 75 | 1014.9 |
| 20260506083543 | 52 | 236 | 0.0 | 0.0 | 0.00 | 0.00 | 0.00 | 74 | 1014.7 |
| 20260506083046 | 52 | 236 | 0.0 | 0.0 | 0.00 | 0.00 | 0.00 | 74 | 1014.7 |
| 20260506082541 | 52 | 236 | 0.0 | 0.0 | 0.00 | 0.00 | 0.00 | 74 | 1014.7 |
| 20260506082040 | 51 | 236 | 0.0 | 0.0 | 0.00 | 0.00 | 0.00 | 73 | 1014.6 |
| 20260506081540 | 51 | 236 | 0.0 | 0.0 | 0.00 | 0.00 | 0.00 | 73 | 1014.5 |
| 20260506081039 | 51 | 236 | 0.0 | 0.0 | 0.00 | 0.00 | 0.00 | 72 | 1014.5 |
| 20260506080538 | 51 | 236 | 0.0 | 0.0 | 0.00 | 0.00 | 0.00 | 72 | 1014.4 |
| 20260506073032 | 53 | 236 | 0.0 | 0.0 | 0.00 | 0.00 | 0.00 | 69 | 1013.9 |
| 20260506072535 | 53 | 236 | 0.0 | 0.0 | 0.00 | 0.00 | 0.00 | 69 | 1014.0 |
| 20260506072030 | 53 | 236 | 0.0 | 0.0 | 0.00 | 0.00 | 0.00 | 69 | 1013.7 |
| 20260506071529 | 53 | 236 | 0.0 | 0.0 | 0.00 | 0.00 | 0.00 | 69 | 1013.9 |
| 20260506071027 | 54 | 236 | 0.0 | 0.0 | 0.00 | 0.00 | 0.00 | 68 | 1013.9 |
| 20260506070527 | 54 | 236 | 0.0 | 0.0 | 0.00 | 0.00 | 0.00 | 68 | 1013.7 |
| 20260506062024 | 56 | 236 | 0.0 | 4.0 | 0.00 | 0.00 | 0.00 | 68 | 1013.6 |
| 20260506061524 | 56 | 186 | 0.0 | 2.0 | 0.00 | 0.00 | 0.00 | 68 | 1013.4 |
| 20260506061027 | 56 | 236 | 0.0 | 3.0 | 0.00 | 0.00 | 0.00 | 68 | 1013.5 |
| 20260506060523 | 56 | 229 | 0.0 | 4.0 | 0.00 | 0.00 | 0.00 | 68 | 1013.5 |
| 20260506051021 | 57 | 230 | 0.0 | 3.0 | 0.00 | 0.00 | 0.00 | 64 | 1013.3 |
| 20260506050521 | 58 | 229 | 0.0 | 2.0 | 0.00 | 0.00 | 0.00 | 64 | 1013.3 |
| 20260506045020 | 58 | 230 | 0.0 | 4.0 | 0.00 | 0.00 | 0.00 | 63 | 1013.1 |
| 20260506044526 | 58 | 194 | 0.0 | 4.0 | 0.00 | 0.00 | 0.00 | 62 | 1013.0 |
| 20260506044020 | 58 | 214 | 0.0 | 2.0 | 0.00 | 0.00 | 0.00 | 62 | 1013.0 |
| 20260506043523 | 59 | 211 | 0.0 | 3.0 | 0.00 | 0.00 | 0.00 | 62 | 1012.9 |
| 20260506043020 | 59 | 211 | 0.0 | 4.0 | 0.00 | 0.00 | 0.00 | 61 | 1012.9 |
| 20260506042523 | 59 | 214 | 0.0 | 3.0 | 0.00 | 0.00 | 0.00 | 61 | 1012.8 |
| 20260506042019 | 59 | 216 | 1.0 | 2.0 | 0.00 | 0.00 | 0.00 | 60 | 1012.7 |
| 20260506041519 | 59 | 199 | 0.0 | 3.0 | 0.00 | 0.00 | 0.00 | 60 | 1012.7 |
| 20260506041020 | 60 | 189 | 0.0 | 4.0 | 0.00 | 0.00 | 0.00 | 59 | 1012.7 |
| 20260506040519 | 60 | 184 | 0.0 | 4.0 | 0.00 | 0.00 | 0.00 | 58 | 1012.7 |
| 20260506040028 | 60 | 213 | 0.0 | 3.0 | 0.00 | 0.00 | 0.00 | 57 | 1012.6 |
| 20260506035518 | 60 | 234 | 0.0 | 3.0 | 0.00 | 0.00 | 0.00 | 57 | 1012.6 |
| 20260506035018 | 61 | 183 | 0.0 | 3.0 | 0.00 | 0.00 | 0.00 | 56 | 1012.6 |
| 20260506034519 | 61 | 194 | 0.0 | 6.0 | 0.00 | 0.00 | 0.00 | 56 | 1012.4 |
| 20260506034019 | 61 | 217 | 1.0 | 6.0 | 0.00 | 0.00 | 0.00 | 56 | 1012.5 |
| 20260506033518 | 61 | 217 | 0.0 | 3.0 | 0.00 | 0.00 | 0.00 | 55 | 1012.3 |
| 20260506033021 | 62 | 173 | 0.0 | 4.0 | 0.00 | 0.00 | 0.00 | 55 | 1012.4 |
| 20260506032517 | 62 | 205 | 0.0 | 4.0 | 0.00 | 0.00 | 0.00 | 55 | 1012.3 |
| 20260506032017 | 62 | 172 | 0.0 | 5.0 | 0.00 | 0.00 | 0.00 | 54 | 1012.2 |
| 20260506031518 | 63 | 205 | 1.0 | 5.0 | 0.00 | 0.00 | 0.00 | 54 | 1012.3 |
| 20260506031020 | 63 | 161 | 1.0 | 5.0 | 0.00 | 0.00 | 0.00 | 54 | 1012.1 |
| 20260506030518 | 63 | 167 | 1.0 | 7.0 | 0.00 | 0.00 | 0.00 | 53 | 1012.2 |
| 20260506030020 | 63 | 187 | 1.0 | 7.0 | 0.00 | 0.00 | 0.00 | 52 | 1012.3 |
| 20260506025516 | 64 | 224 | 1.0 | 5.0 | 0.00 | 0.00 | 0.00 | 51 | 1012.3 |
| 20260506025016 | 64 | 173 | 2.0 | 4.0 | 0.00 | 0.00 | 0.00 | 50 | 1012.3 |
| 20260506024526 | 65 | 194 | 1.0 | 4.0 | 0.00 | 0.00 | 0.00 | 50 | 1012.4 |
| 20260506024016 | 65 | 152 | 1.0 | 5.0 | 0.00 | 0.00 | 0.00 | 49 | 1012.3 |
| 20260506023520 | 66 | 165 | 1.0 | 4.0 | 0.00 | 0.00 | 0.00 | 48 | 1012.3 |
| 20260506023016 | 66 | 169 | 2.0 | 4.0 | 0.00 | 0.00 | 0.00 | 48 | 1012.3 |
| 20260506022515 | 67 | 146 | 1.0 | 4.0 | 0.00 | 0.00 | 0.00 | 47 | 1012.2 |
| 20260506022015 | 67 | 188 | 1.0 | 3.0 | 0.00 | 0.00 | 0.00 | 47 | 1012.1 |
| 20260506021530 | 67 | 157 | 1.0 | 6.0 | 0.00 | 0.00 | 0.00 | 46 | 1012.1 |
| 20260506021015 | 68 | 180 | 1.0 | 4.0 | 0.00 | 0.00 | 0.00 | 46 | 1012.0 |
| 20260506020518 | 68 | 157 | 1.0 | 6.0 | 0.00 | 0.00 | 0.00 | 46 | 1012.1 |
| 20260506020016 | 68 | 167 | 3.0 | 6.0 | 0.00 | 0.00 | 0.00 | 46 | 1012.1 |
| 20260506015517 | 68 | 158 | 1.0 | 6.0 | 0.00 | 0.00 | 0.00 | 46 | 1012.2 |
| 20260506015017 | 68 | 188 | 2.0 | 5.0 | 0.00 | 0.00 | 0.00 | 46 | 1012.1 |
| 20260506014522 | 68 | 169 | 1.0 | 4.0 | 0.00 | 0.00 | 0.00 | 46 | 1012.1 |
| 20260506014013 | 69 | 169 | 1.0 | 5.0 | 0.00 | 0.00 | 0.00 | 46 | 1012.1 |
| 20260506013514 | 69 | 128 | 1.0 | 5.0 | 0.00 | 0.00 | 0.00 | 46 | 1012.1 |
| 20260506013014 | 69 | 130 | 1.0 | 3.0 | 0.00 | 0.00 | 0.00 | 45 | 1012.1 |
| 20260506012514 | 69 | 124 | 1.0 | 5.0 | 0.00 | 0.00 | 0.00 | 45 | 1012.2 |
| 20260506012019 | 69 | 169 | 2.0 | 6.0 | 0.00 | 0.00 | 0.00 | 44 | 1012.2 |
| 20260506011521 | 69 | 161 | 2.0 | 6.0 | 0.00 | 0.00 | 0.00 | 44 | 1012.2 |
| 20260506011013 | 69 | 174 | 3.0 | 6.0 | 0.00 | 0.00 | 0.00 | 43 | 1012.2 |
| 20260506010513 | 69 | 100 | 2.0 | 6.0 | 0.00 | 0.00 | 0.00 | 43 | 1012.2 |
| 20260506010014 | 70 | 130 | 2.0 | 5.0 | 0.00 | 0.00 | 0.00 | 42 | 1012.2 |
| 20260506005512 | 70 | 104 | 1.0 | 6.0 | 0.00 | 0.00 | 0.00 | 41 | 1012.1 |
| 20260506005015 | 70 | 175 | 2.0 | 6.0 | 0.00 | 0.00 | 0.00 | 41 | 1012.2 |
| 20260506004511 | 70 | 154 | 2.0 | 8.0 | 0.00 | 0.00 | 0.00 | 41 | 1012.3 |
| 20260506004010 | 70 | 167 | 1.0 | 8.0 | 0.00 | 0.00 | 0.00 | 42 | 1012.3 |
| 20260506003510 | 70 | 80 | 3.0 | 7.0 | 0.00 | 0.00 | 0.00 | 42 | 1012.4 |
| 20260506003010 | 70 | 138 | 2.0 | 6.0 | 0.00 | 0.00 | 0.00 | 42 | 1012.5 |
| 20260506002513 | 70 | 130 | 2.0 | 6.0 | 0.00 | 0.00 | 0.00 | 42 | 1012.4 |
| 20260506002009 | 70 | 150 | 3.0 | 7.0 | 0.00 | 0.00 | 0.00 | 41 | 1012.4 |
| 20260506001542 | 70 | 157 | 3.0 | 7.0 | 0.00 | 0.00 | 0.00 | 41 | 1012.4 |
| 20260506001008 | 70 | 108 | 2.0 | 7.0 | 0.00 | 0.00 | 0.00 | 40 | 1012.4 |
| 20260506000508 | 71 | 172 | 2.0 | 7.0 | 0.00 | 0.00 | 0.00 | 39 | 1012.4 |
| 20260506000006 | 71 | 112 | 2.0 | 8.0 | 0.00 | 0.00 | 0.00 | 39 | 1012.5 |
| 20260505235504 | 71 | 97 | 3.0 | 8.0 | 0.00 | 0.00 | 0.00 | 39 | 1012.6 |
| 20260505235006 | 71 | 111 | 2.0 | 7.0 | 0.00 | 0.00 | 0.00 | 40 | 1012.5 |
| 20260505234508 | 70 | 123 | 2.0 | 8.0 | 0.00 | 0.00 | 0.00 | 40 | 1012.6 |
| 20260505234002 | 70 | 146 | 2.0 | 8.0 | 0.00 | 0.00 | 0.00 | 40 | 1012.5 |
| 20260505233501 | 70 | 111 | 3.0 | 8.0 | 0.00 | 0.00 | 0.00 | 39 | 1012.4 |
| 20260505233001 | 70 | 126 | 2.0 | 7.0 | 0.00 | 0.00 | 0.00 | 40 | 1012.4 |
| 20260505232501 | 70 | 186 | 4.0 | 7.0 | 0.00 | 0.00 | 0.00 | 39 | 1012.6 |
| 20260505232001 | 71 | 105 | 3.0 | 8.0 | 0.00 | 0.00 | 0.00 | 39 | 1012.7 |
| 20260505231501 | 71 | 151 | 3.0 | 8.0 | 0.00 | 0.00 | 0.00 | 38 | 1012.7 |
| 20260505231002 | 70 | 217 | 3.0 | 8.0 | 0.00 | 0.00 | 0.00 | 39 | 1012.7 |
| 20260505230603 | 70 | 97 | 2.0 | 9.0 | 0.00 | 0.00 | 0.00 | 39 | 1012.7 |
| 20260505230100 | 70 | 101 | 3.0 | 8.0 | 0.00 | 0.00 | 0.00 | 40 | 1012.7 |
| 20260505225559 | 70 | 205 | 2.0 | 9.0 | 0.00 | 0.00 | 0.00 | 39 | 1012.7 |
| 20260505225059 | 70 | 108 | 4.0 | 10.0 | 0.00 | 0.00 | 0.00 | 39 | 1012.9 |
| 20260505224559 | 70 | 137 | 4.0 | 10.0 | 0.00 | 0.00 | 0.00 | 39 | 1012.7 |
| 20260505224058 | 70 | 178 | 3.0 | 9.0 | 0.00 | 0.00 | 0.00 | 40 | 1012.8 |
| 20260505223558 | 70 | 84 | 3.0 | 9.0 | 0.00 | 0.00 | 0.00 | 40 | 1012.8 |
| 20260505223108 | 70 | 111 | 4.0 | 9.0 | 0.00 | 0.00 | 0.00 | 40 | 1013.0 |
| 20260505222558 | 70 | 132 | 4.0 | 9.0 | 0.00 | 0.00 | 0.00 | 40 | 1013.0 |
| 20260505222058 | 70 | 124 | 4.0 | 9.0 | 0.00 | 0.00 | 0.00 | 40 | 1013.0 |
| 20260505221603 | 70 | 142 | 3.0 | 7.0 | 0.00 | 0.00 | 0.00 | 40 | 1013.0 |
| 20260505221058 | 70 | 130 | 4.0 | 8.0 | 0.00 | 0.00 | 0.00 | 40 | 1013.3 |
| 20260505220557 | 71 | 123 | 3.0 | 8.0 | 0.00 | 0.00 | 0.00 | 41 | 1013.3 |
| 20260505220100 | 71 | 113 | 4.0 | 9.0 | 0.00 | 0.00 | 0.00 | 39 | 1013.3 |
| 20260505215558 | 72 | 190 | 2.0 | 8.0 | 0.00 | 0.00 | 0.00 | 40 | 1013.3 |
| 20260505215056 | 72 | 110 | 4.0 | 8.0 | 0.00 | 0.00 | 0.00 | 40 | 1013.4 |
| 20260505214603 | 72 | 119 | 2.0 | 7.0 | 0.00 | 0.00 | 0.00 | 40 | 1013.5 |
| 20260505214057 | 72 | 159 | 5.0 | 8.0 | 0.00 | 0.00 | 0.00 | 41 | 1013.5 |
| 20260505213557 | 72 | 133 | 3.0 | 7.0 | 0.00 | 0.00 | 0.00 | 41 | 1013.6 |
| 20260505213055 | 71 | 152 | 2.0 | 7.0 | 0.00 | 0.00 | 0.00 | 42 | 1013.5 |
| 20260505212554 | 71 | 134 | 3.0 | 7.0 | 0.00 | 0.00 | 0.00 | 42 | 1013.5 |
| 20260505212053 | 71 | 133 | 4.0 | 9.0 | 0.00 | 0.00 | 0.00 | 43 | 1013.5 |
| 20260505211610 | 71 | 131 | 2.0 | 9.0 | 0.00 | 0.00 | 0.00 | 45 | 1013.6 |
| 20260505211051 | 70 | 119 | 2.0 | 9.0 | 0.00 | 0.00 | 0.00 | 44 | 1013.7 |
| 20260505210551 | 70 | 75 | 3.0 | 9.0 | 0.00 | 0.00 | 0.00 | 44 | 1013.7 |
| 20260505210053 | 70 | 122 | 4.0 | 8.0 | 0.00 | 0.00 | 0.00 | 45 | 1013.6 |
| 20260505205550 | 70 | 117 | 3.0 | 8.0 | 0.00 | 0.00 | 0.00 | 44 | 1013.7 |
| 20260505205049 | 70 | 145 | 3.0 | 8.0 | 0.00 | 0.00 | 0.00 | 44 | 1013.7 |
| 20260505204549 | 69 | 121 | 4.0 | 9.0 | 0.00 | 0.00 | 0.00 | 43 | 1013.6 |
| 20260505204048 | 69 | 115 | 4.0 | 8.0 | 0.00 | 0.00 | 0.00 | 44 | 1013.8 |
| 20260505203547 | 69 | 142 | 4.0 | 9.0 | 0.00 | 0.00 | 0.00 | 45 | 1013.9 |
| 20260505203105 | 69 | 86 | 3.0 | 9.0 | 0.00 | 0.00 | 0.00 | 45 | 1013.9 |
| 20260505202546 | 69 | 148 | 5.0 | 9.0 | 0.00 | 0.00 | 0.00 | 45 | 1013.8 |
| 20260505202047 | 69 | 101 | 4.0 | 9.0 | 0.00 | 0.00 | 0.00 | 46 | 1013.8 |
| 20260505201546 | 69 | 101 | 4.0 | 8.0 | 0.00 | 0.00 | 0.00 | 47 | 1013.7 |
| 20260505201046 | 68 | 103 | 3.0 | 8.0 | 0.00 | 0.00 | 0.00 | 47 | 1013.8 |
| 20260505200546 | 68 | 118 | 2.0 | 9.0 | 0.00 | 0.00 | 0.00 | 47 | 1013.8 |
| 20260505200046 | 68 | 106 | 4.0 | 9.0 | 0.00 | 0.00 | 0.00 | 48 | 1013.7 |
| 20260505195544 | 68 | 157 | 4.0 | 8.0 | 0.00 | 0.00 | 0.00 | 47 | 1013.8 |
| 20260505195044 | 68 | 118 | 4.0 | 10.0 | 0.00 | 0.00 | 0.00 | 47 | 1013.9 |
| 20260505194544 | 68 | 101 | 4.0 | 10.0 | 0.00 | 0.00 | 0.00 | 47 | 1013.9 |
| 20260505194043 | 68 | 129 | 5.0 | 10.0 | 0.00 | 0.00 | 0.00 | 47 | 1013.9 |
| 20260505193542 | 68 | 78 | 5.0 | 9.0 | 0.00 | 0.00 | 0.00 | 47 | 1013.9 |
| 20260505193041 | 68 | 190 | 2.0 | 8.0 | 0.00 | 0.00 | 0.00 | 48 | 1013.9 |
| 20260505192545 | 68 | 140 | 3.0 | 9.0 | 0.00 | 0.00 | 0.00 | 48 | 1013.8 |
| 20260505192040 | 67 | 117 | 4.0 | 9.0 | 0.00 | 0.00 | 0.00 | 48 | 1013.9 |
| 20260505191545 | 68 | 110 | 4.0 | 10.0 | 0.00 | 0.00 | 0.00 | 47 | 1013.8 |
| 20260505191039 | 68 | 78 | 6.0 | 10.0 | 0.00 | 0.00 | 0.00 | 45 | 1013.8 |
| 20260505190538 | 69 | 64 | 5.0 | 9.0 | 0.00 | 0.00 | 0.00 | 46 | 1013.7 |
| 20260505190041 | 69 | 144 | 2.0 | 8.0 | 0.00 | 0.00 | 0.00 | 46 | 1013.7 |
| 20260505185539 | 68 | 115 | 4.0 | 8.0 | 0.00 | 0.00 | 0.00 | 43 | 1013.7 |
| 20260505185035 | 69 | 143 | 3.0 | 8.0 | 0.00 | 0.00 | 0.00 | 45 | 1013.8 |
| 20260505184545 | 69 | 132 | 3.0 | 8.0 | 0.00 | 0.00 | 0.00 | 47 | 1013.8 |
| 20260505184033 | 69 | 105 | 4.0 | 8.0 | 0.00 | 0.00 | 0.00 | 46 | 1013.8 |
| 20260505183531 | 69 | 111 | 4.0 | 8.0 | 0.00 | 0.00 | 0.00 | 46 | 1013.7 |
| 20260505183038 | 69 | 115 | 2.0 | 7.0 | 0.00 | 0.00 | 0.00 | 45 | 1013.7 |
| 20260505182533 | 69 | 132 | 3.0 | 6.0 | 0.00 | 0.00 | 0.00 | 45 | 1013.7 |
| 20260505182028 | 68 | 173 | 2.0 | 6.0 | 0.00 | 0.00 | 0.00 | 48 | 1013.7 |
| 20260505181527 | 68 | 199 | 2.0 | 7.0 | 0.00 | 0.00 | 0.00 | 48 | 1013.8 |
| 20260505181027 | 68 | 30 | 2.0 | 7.0 | 0.00 | 0.00 | 0.00 | 48 | 1013.7 |
| 20260505180527 | 68 | 360 | 2.0 | 7.0 | 0.00 | 0.00 | 0.00 | 49 | 1013.6 |
| 20260505180023 | 67 | 116 | 2.0 | 7.0 | 0.00 | 0.00 | 0.00 | 49 | 1013.7 |
| 20260505175521 | 68 | 123 | 3.0 | 7.0 | 0.00 | 0.00 | 0.00 | 49 | 1013.7 |
| 20260505175022 | 68 | 53 | 2.0 | 7.0 | 0.00 | 0.00 | 0.00 | 49 | 1013.7 |
| 20260505174518 | 67 | 41 | 3.0 | 9.0 | 0.00 | 0.00 | 0.00 | 50 | 1013.6 |
| 20260505174017 | 67 | 80 | 3.0 | 9.0 | 0.00 | 0.00 | 0.00 | 50 | 1013.7 |
| 20260505173515 | 67 | 82 | 1.0 | 5.0 | 0.00 | 0.00 | 0.00 | 50 | 1013.6 |
| 20260505173016 | 66 | 115 | 1.0 | 6.0 | 0.00 | 0.00 | 0.00 | 51 | 1013.6 |
| 20260505172513 | 66 | 123 | 2.0 | 6.0 | 0.00 | 0.00 | 0.00 | 51 | 1013.6 |
| 20260505172011 | 66 | 89 | 2.0 | 6.0 | 0.00 | 0.00 | 0.00 | 51 | 1013.7 |
| 20260505171510 | 66 | 105 | 3.0 | 7.0 | 0.00 | 0.00 | 0.00 | 52 | 1013.8 |
| 20260505171009 | 66 | 65 | 1.0 | 8.0 | 0.00 | 0.00 | 0.00 | 52 | 1013.8 |
| 20260505170506 | 65 | 137 | 2.0 | 8.0 | 0.00 | 0.00 | 0.00 | 53 | 1013.7 |
| 20260505170010 | 65 | 96 | 1.0 | 7.0 | 0.00 | 0.00 | 0.00 | 54 | 1013.7 |
| 20260505165504 | 65 | 155 | 2.0 | 9.0 | 0.00 | 0.00 | 0.00 | 54 | 1013.7 |
| 20260505165005 | 64 | 185 | 3.0 | 10.0 | 0.00 | 0.00 | 0.00 | 54 | 1013.7 |
| 20260505164501 | 64 | 107 | 4.0 | 10.0 | 0.00 | 0.00 | 0.00 | 55 | 1013.6 |
| 20260505164104 | 65 | 109 | 4.0 | 8.0 | 0.00 | 0.00 | 0.00 | 55 | 1013.7 |
| 20260505163558 | 65 | 148 | 3.0 | 8.0 | 0.00 | 0.00 | 0.00 | 55 | 1013.6 |
| 20260505163056 | 64 | 104 | 4.0 | 8.0 | 0.00 | 0.00 | 0.00 | 56 | 1013.6 |
| 20260505162555 | 64 | 134 | 5.0 | 8.0 | 0.00 | 0.00 | 0.00 | 55 | 1013.6 |
| 20260505162054 | 65 | 143 | 2.0 | 8.0 | 0.00 | 0.00 | 0.00 | 56 | 1013.5 |
| 20260505161553 | 65 | 94 | 3.0 | 8.0 | 0.00 | 0.00 | 0.00 | 56 | 1013.5 |
| 20260505161051 | 65 | 205 | 2.0 | 7.0 | 0.00 | 0.00 | 0.00 | 56 | 1013.4 |
| 20260505160551 | 64 | 149 | 2.0 | 6.0 | 0.00 | 0.00 | 0.00 | 56 | 1013.5 |
| 20260505153048 | 63 | 110 | 2.0 | 4.0 | 0.00 | 0.00 | 0.00 | 60 | 1013.2 |
| 20260505152539 | 63 | 146 | 2.0 | 4.0 | 0.00 | 0.00 | 0.00 | 60 | 1013.1 |
| 20260505152040 | 62 | 116 | 2.0 | 4.0 | 0.00 | 0.00 | 0.00 | 60 | 1013.1 |
| 20260505151543 | 62 | 150 | 1.0 | 4.0 | 0.00 | 0.00 | 0.00 | 60 | 1012.9 |
| 20260505151036 | 62 | 132 | 2.0 | 3.0 | 0.00 | 0.00 | 0.00 | 60 | 1012.9 |
| 20260505150535 | 62 | 125 | 1.0 | 3.0 | 0.00 | 0.00 | 0.00 | 61 | 1012.8 |
| 20260505140523 | 53 | 301 | 0.0 | 0.0 | 0.00 | 0.00 | 0.00 | 71 | 1012.3 |